Weather in Ashe

Russia / Krasnodar Krai     43°57′30″N   39°16′08″E
temp.,
°C
wind,
m/s
gust,
m/s
humid.,
%
clouds,
%
prec.,
mm/h
press.,
hPa
HPBL,
m
26 january, tue
tue2600:00+10se7186299 0.0 1014523
03:00+10sse11158599 1.4 10151145
06:00+10ese71372100 3.1 1017417
09:00+11se61266100 3.1 1018330
12:00+12se61159100 0.0 1017467
15:00+13se61160100 0.0 1015434
18:00+11se476988 0.0 1016113
21:00+11se456594 0.0 101479
27 january, wed
wed2700:00+12ese51056100 0.0 1014179
03:00+11s4668100 0.0 1013103
06:00+10ese336797 0.0 101066
09:00+11e116798 0.0 100924
12:00+11sse3368100 0.0 1007129
15:00+12sse4106499 0.0 1005350
18:00+12se51461100 0.0 1005360
21:00+12se6165291 0.0 1004323
28 january, thu
thu2800:00+12se585134 0.0 1003136
03:00+11sse475867 0.0 1002132
06:00+10sse5862100 0.0 1003198
09:00+10ese356693 0.1 1004130
12:00+9ssw5789100 1.8 1006578
15:00+8ssw4682100 4.9 1008814
18:00+7e5686100 2.8 1009277
21:00+6se3480100 4.4 1010312
29 january, fri
fri2900:00+6nnw1181100 1.1 1011222
03:00+6nw2287100 1.8 1010269
06:00+6wnw2379100 1.6 1011536
09:00+5wnw2375100 3.1 1012497
12:00+6sw3466100 0.5 1012932
15:00+6ssw567087 1.7 10121052
18:00+6ssw587576 1.8 10131073
21:00+6s8107788 3.2 10131216
30 january, sat
sat3000:00+7sse111375100 1.1 10131221
03:00+7sse9137799 1.6 10121330
06:00+7sse9137090 0.3 10101240
09:00+8sse10136795 0.4 10101336
12:00+9sse111561100 0.0 10081608
15:00+9sse131760100 0.0 10071782
18:00+9sse111660100 0.0 10061029
21:00+9sse81662100 0.0 1005759